Starlink 1227

operational
NORAD ID: 45230 Int'l Des: 2020-012 Owner: SPXS Country: US Constellation: starlink
LEOCIRCULARSTARLINK_TYPE

About Starlink 1227

Description loading...

Live Position

Loading 3D Globe...

Upcoming Passes

Altitude History

Altitude vs Time

uPlot chart will show altitude changes over time

Two-Line Element Set

1 45230U 20012BE 25306.04430652 .00015225 00000-0 10388-2 0 9996
2 45230 53.0539 219.6404 0001458 107.0085 253.1064 15.06397907316172
Epoch: Nov 2, 2025 • Age: 23 hours

Current Status

Altitude 566.5 km
Velocity 7.58 km/s
Sub-Earth Point -53.16°S, 71.44°E
Launch Date Feb 17, 2020
Age 5.7 years
Type internet

Technical Details

Classification Payload
Mass 260.00 kg
Dry Mass 248.00 kg
Total Mass 260.00 kg
Length 0.20 m
Diameter 2.80 m
Span 9.00 m
Shape Box + pan
Manufacturer SPXS
Bus Type Starlink
Phase Status In Orbit
Owner/State SPXS/US

Large Constellations

Loading constellations...